Teterboro, NJ

1:18 PM EDT on March 28, 2017 (GMT -0400)
Teterboro

Weather History for KTEB - January, 2013

Change the Weather History Date:

Wednesday, January 23, 2013

  Actual Average Record
Temperature  
Mean Temperature 14 °F -  
Max Temperature 19 °F 34 °F 57 °F (1992)
Min Temperature 10 °F 20 °F 7 °F (2014)
Degree Days  
Heating Degree Days 50    
Moisture  
Dew Point -3 °F    
Average Humidity 45    
Maximum Humidity 59    
Minimum Humidity 33    
Precipitation  
Precipitation 0.00 in - - ()
Sea Level Pressure  
Sea Level Pressure 30.21 in    
Wind  
Wind Speed 11 mph (WNW)    
Max Wind Speed 18 mph    
Max Gust Speed 24 mph    
Visibility 10 miles    
Events      
Averages and records for this station are not official NWS values.
T = Trace of Precipitation, MM = Missing Value Source: NWS Daily Summary

Daily Weather History Graph

Daily Weather History Graph

Search for Another Location

Airport or City:

Trip Planner

Search our weather history database for the weather conditions in past years. The results will help you decide how hot, cold, wet, or windy it might be!

Date:

Astronomy

Jan. 23, 2013 Rise Set
Actual Time 7:13 AM EST 5:02 PM EST
Civil Twilight 6:44 AM EST 5:32 PM EST
Nautical Twilight 6:10 AM EST 6:05 PM EST
Astronomical Twilight 5:38 AM EST 6:38 PM EST
Moon 2:10 PM EST (1/23) 4:23 AM EST (1/23)
Length of Visible Light 10h 48m
Length of Day
9h 49m
Waxing Gibbous, 89% of the Moon is Illuminated
Jan 23
Waxing Gibbous
Jan 26
Full
Feb 3
Last Quarter
Feb 10
New
Feb 17
First Quarter

Hourly Weather History & Observations

Time (EST) Temp. Windchill Dew Point Humidity Pressure Visibility Wind Dir Wind Speed Gust Speed Precip Events Conditions
12:51 AM 12.9 °F -3.9 °F -7.1 °F 41% 30.20 in 10.0 mi West 17.3 mph 24.2 mph N/A   Clear
1:51 AM 12.0 °F -2.0 °F -6.0 °F 44% 30.21 in 10.0 mi West 11.5 mph - N/A   Clear
2:51 AM 12.0 °F -0.4 °F -6.0 °F 44% 30.22 in 10.0 mi West 9.2 mph - N/A   Clear
3:51 AM 12.0 °F -2.0 °F -5.1 °F 46% 30.22 in 10.0 mi West 11.5 mph - N/A   Clear
4:51 AM 10.9 °F -2.6 °F -5.1 °F 49% 30.22 in 10.0 mi WNW 10.4 mph - N/A   Clear
5:51 AM 10.9 °F -1.8 °F -2.9 °F 54% 30.22 in 10.0 mi WSW 9.2 mph - N/A   Clear
6:51 AM 10.9 °F 1.4 °F -2.0 °F 56% 30.23 in 10.0 mi West 5.8 mph - N/A   Clear
7:51 AM 12.0 °F 0.5 °F -2.0 °F 53% 30.24 in 10.0 mi West 8.1 mph - N/A   Clear
8:51 AM 12.9 °F 1.6 °F -2.0 °F 51% 30.25 in 10.0 mi WNW 8.1 mph - N/A   Clear
9:51 AM 15.1 °F 1.8 °F -2.0 °F 47% 30.26 in 10.0 mi West 11.5 mph 18.4 mph N/A   Clear
10:51 AM 16.0 °F 1.7 °F -5.1 °F 39% 30.25 in 10.0 mi WNW 13.8 mph 23.0 mph N/A   Partly Cloudy
11:51 AM 18.0 °F 4.2 °F -5.1 °F 36% 30.22 in 10.0 mi West 13.8 mph - N/A   Mostly Cloudy
12:51 PM 19.4 °F 5.5 °F -5.8 °F 33% 30.18 in 10.0 mi NW 15.0 mph 23.0 mph N/A   Mostly Cloudy
1:51 PM 18.0 °F 4.2 °F -5.1 °F 36% 30.17 in 10.0 mi West 13.8 mph 18.4 mph N/A   Mostly Cloudy
2:51 PM 19.9 °F 4.8 °F -5.1 °F 33% 30.17 in 10.0 mi NW 18.4 mph 24.2 mph N/A   Partly Cloudy
3:51 PM 19.0 °F 5.6 °F -5.1 °F 34% 30.17 in 10.0 mi WNW 13.8 mph 18.4 mph N/A   Mostly Cloudy
4:51 PM 18.0 °F 4.2 °F -5.1 °F 36% 30.18 in 10.0 mi WNW 13.8 mph 20.7 mph N/A   Scattered Clouds
5:51 PM 17.1 °F 6.6 °F -4.0 °F 39% 30.19 in 10.0 mi NW 8.1 mph - N/A   Mostly Cloudy
6:51 PM 16.0 °F 5.3 °F -2.9 °F 43% 30.21 in 10.0 mi WNW 8.1 mph - N/A   Clear
7:51 PM 16.0 °F 5.3 °F -0.9 °F 47% 30.20 in 10.0 mi WNW 8.1 mph - N/A   Clear
8:51 PM 15.8 °F 7.2 °F -0.4 °F 49% 30.20 in 10.0 mi WNW 5.8 mph - N/A   Clear
9:51 PM 15.1 °F 9.4 °F 1.0 °F 54% 30.20 in 10.0 mi West 3.5 mph - N/A   Clear
10:51 PM 14.0 °F - 1.0 °F 56% 30.20 in 10.0 mi Calm Calm - N/A   Clear
11:51 PM 14.0 °F - 1.9 °F 59% 30.19 in 10.0 mi Calm Calm - N/A   Clear